TimeEST,TemperatureF,Dew PointF,Humidity,Sea Level PressureIn,VisibilityMPH,Wind Direction,Wind SpeedMPH,Gust SpeedMPH,PrecipitationIn,Events,Conditions,WindDirDegrees,DateUTC
12:52 AM,21.9,18.0,85,30.65,10.0,Calm,Calm,-,N/A,,Clear,0,2012-11-19 05:52:00
1:52 AM,21.0,17.1,85,30.64,10.0,Calm,Calm,-,N/A,,Clear,0,2012-11-19 06:52:00
2:52 AM,19.9,17.1,89,30.63,10.0,Calm,Calm,-,N/A,,Clear,0,2012-11-19 07:52:00
3:52 AM,19.9,16.0,85,30.61,9.0,Calm,Calm,-,N/A,,Clear,0,2012-11-19 08:52:00
4:52 AM,19.0,15.1,85,30.61,10.0,Calm,Calm,-,N/A,,Clear,0,2012-11-19 09:52:00
5:52 AM,18.0,14.0,84,30.61,10.0,Calm,Calm,-,N/A,,Clear,0,2012-11-19 10:52:00
6:16 AM,19.4,15.8,86,30.55,9.0,Calm,Calm,-,N/A,,Mostly Cloudy,0,2012-11-19 11:16:00
6:34 AM,19.4,14.0,80,30.54,9.0,Calm,Calm,-,N/A,,Partly Cloudy,0,2012-11-19 11:34:00
6:52 AM,18.0,14.0,84,30.61,8.0,Calm,Calm,-,N/A,,Clear,0,2012-11-19 11:52:00
7:52 AM,19.9,17.1,89,30.59,9.0,Calm,Calm,-,N/A,,Clear,0,2012-11-19 12:52:00
8:52 AM,28.0,23.0,81,30.57,10.0,Calm,Calm,-,N/A,,Clear,0,2012-11-19 13:52:00
9:52 AM,34.0,24.1,67,30.55,10.0,NNE,3.5,-,N/A,,Clear,30,2012-11-19 14:52:00
10:52 AM,39.9,26.1,58,30.52,10.0,ENE,3.5,-,N/A,,Clear,60,2012-11-19 15:52:00
11:52 AM,43.0,27.0,53,30.48,10.0,Calm,Calm,-,N/A,,Clear,0,2012-11-19 16:52:00
12:52 PM,45.0,27.0,49,30.45,10.0,Calm,Calm,-,N/A,,Clear,0,2012-11-19 17:52:00
1:52 PM,46.9,26.1,44,30.43,10.0,Calm,Calm,-,N/A,,Clear,0,2012-11-19 18:52:00
2:52 PM,46.0,26.1,46,30.42,10.0,Calm,Calm,-,N/A,,Clear,0,2012-11-19 19:52:00
3:52 PM,42.1,27.0,55,30.41,10.0,Calm,Calm,-,N/A,,Clear,0,2012-11-19 20:52:00
4:52 PM,33.1,27.0,78,30.41,10.0,Calm,Calm,-,N/A,,Clear,0,2012-11-19 21:52:00
5:52 PM,30.0,25.0,82,30.42,10.0,Calm,Calm,-,N/A,,Clear,0,2012-11-19 22:52:00
6:52 PM,28.0,25.0,88,30.40,10.0,Calm,Calm,-,N/A,,Clear,0,2012-11-19 23:52:00
7:52 PM,27.0,24.1,89,30.39,10.0,Calm,Calm,-,N/A,,Clear,0,2012-11-20 00:52:00
9:52 PM,25.0,21.9,88,30.34,10.0,Calm,Calm,-,N/A,,Clear,0,2012-11-20 02:52:00
10:52 PM,24.1,21.0,88,30.32,10.0,Calm,Calm,-,N/A,,Clear,0,2012-11-20 03:52:00
11:52 PM,23.0,19.9,88,30.30,10.0,Calm,Calm,-,N/A,,Clear,0,2012-11-20 04:52:00